TimeEST,TemperatureF,Dew PointF,Humidity,Sea Level PressureIn,VisibilityMPH,Wind Direction,Wind SpeedMPH,Gust SpeedMPH,PrecipitationIn,Events,Conditions,WindDirDegrees,DateUTC
12:15 AM,36.0,25.5,66,30.17,10.0,SSW,3.5,-,N/A,,Overcast,200,2013-01-06 05:15:00
12:35 AM,35.4,25.5,67,30.17,10.0,SSW,4.6,-,N/A,,Overcast,200,2013-01-06 05:35:00
12:55 AM,35.6,25.7,67,30.16,10.0,SSW,4.6,-,N/A,,Overcast,200,2013-01-06 05:55:00
1:15 AM,35.6,25.7,67,30.15,10.0,SSW,3.5,-,N/A,,Overcast,210,2013-01-06 06:15:00
1:35 AM,35.6,25.3,66,30.15,10.0,SSW,3.5,-,N/A,,Overcast,210,2013-01-06 06:35:00
2:15 AM,35.1,26.1,70,30.15,10.0,SSW,3.5,-,N/A,,Overcast,200,2013-01-06 07:15:00
2:35 AM,36.3,25.5,65,30.15,10.0,SW,3.5,-,N/A,,Overcast,220,2013-01-06 07:35:00
2:55 AM,36.5,25.3,64,30.14,10.0,SSW,3.5,-,N/A,,Overcast,210,2013-01-06 07:55:00
3:15 AM,35.2,25.3,67,30.14,10.0,Calm,Calm,-,N/A,,Mostly Cloudy,0,2013-01-06 08:15:00
3:35 AM,32.5,25.7,76,30.13,10.0,Calm,Calm,-,N/A,,Mostly Cloudy,0,2013-01-06 08:35:00
3:55 AM,31.8,25.7,78,30.13,10.0,Calm,Calm,-,N/A,,Scattered Clouds,0,2013-01-06 08:55:00
4:15 AM,30.2,25.5,83,30.12,10.0,Calm,Calm,-,N/A,,Mostly Cloudy,0,2013-01-06 09:15:00
4:35 AM,29.8,25.3,83,30.11,10.0,Calm,Calm,-,N/A,,Scattered Clouds,0,2013-01-06 09:35:00
4:55 AM,30.9,25.2,79,30.11,10.0,South,3.5,-,N/A,,Clear,190,2013-01-06 09:55:00
5:15 AM,32.0,24.8,75,30.10,10.0,South,3.5,-,N/A,,Clear,190,2013-01-06 10:15:00
5:55 AM,31.8,26.2,80,30.09,10.0,South,3.5,-,N/A,,Overcast,190,2013-01-06 10:55:00
6:15 AM,33.1,26.4,77,30.09,10.0,Calm,Calm,-,N/A,,Overcast,0,2013-01-06 11:15:00
6:35 AM,33.8,26.4,74,30.09,10.0,South,4.6,-,N/A,,Overcast,190,2013-01-06 11:35:00
6:55 AM,33.8,26.4,74,30.09,10.0,South,4.6,-,N/A,,Overcast,190,2013-01-06 11:55:00
7:15 AM,34.0,26.4,74,30.09,10.0,South,4.6,-,N/A,,Overcast,190,2013-01-06 12:15:00
7:35 AM,34.0,26.6,74,30.09,10.0,South,4.6,-,N/A,,Overcast,190,2013-01-06 12:35:00
7:55 AM,34.7,26.6,72,30.09,10.0,South,5.8,-,N/A,,Overcast,190,2013-01-06 12:55:00
8:15 AM,34.9,26.6,72,30.09,10.0,SSW,4.6,-,N/A,,Overcast,200,2013-01-06 13:15:00
8:35 AM,35.2,26.6,71,30.09,10.0,SSW,4.6,-,N/A,,Overcast,200,2013-01-06 13:35:00
9:15 AM,36.1,26.8,69,30.10,10.0,SSW,4.6,-,N/A,,Overcast,210,2013-01-06 14:15:00
9:55 AM,37.4,27.0,66,30.10,10.0,SSW,4.6,-,N/A,,Overcast,210,2013-01-06 14:55:00
10:15 AM,37.4,27.3,67,30.11,10.0,SSW,4.6,-,N/A,,Overcast,210,2013-01-06 15:15:00
10:35 AM,37.6,27.3,66,30.10,10.0,SSW,4.6,-,N/A,,Overcast,200,2013-01-06 15:35:00
11:15 AM,38.5,28.0,66,30.10,10.0,SW,8.1,-,N/A,,Overcast,220,2013-01-06 16:15:00
11:35 AM,39.2,28.0,64,30.09,10.0,SSW,6.9,-,N/A,,Overcast,200,2013-01-06 16:35:00
11:55 AM,39.4,28.4,65,30.07,10.0,SW,6.9,-,N/A,,Overcast,220,2013-01-06 16:55:00
12:15 PM,39.9,28.8,64,30.06,10.0,SSW,6.9,-,N/A,,Overcast,200,2013-01-06 17:15:00
12:35 PM,40.1,28.8,64,30.05,10.0,SW,8.1,-,N/A,,Overcast,220,2013-01-06 17:35:00
12:55 PM,40.3,29.1,64,30.04,10.0,SW,9.2,-,N/A,,Overcast,220,2013-01-06 17:55:00
1:15 PM,40.6,29.1,64,30.03,10.0,SW,10.4,-,N/A,,Overcast,220,2013-01-06 18:15:00
1:35 PM,41.0,29.3,63,30.03,10.0,SW,9.2,-,N/A,,Overcast,230,2013-01-06 18:35:00
2:15 PM,40.6,29.3,64,30.02,10.0,SW,10.4,-,N/A,,Overcast,230,2013-01-06 19:15:00
2:35 PM,40.6,29.3,64,30.02,10.0,SW,6.9,-,N/A,,Overcast,220,2013-01-06 19:35:00
2:55 PM,40.8,29.5,64,30.03,10.0,SSW,6.9,-,N/A,,Overcast,210,2013-01-06 19:55:00
3:15 PM,40.5,29.7,65,30.03,10.0,SSW,4.6,-,N/A,,Overcast,210,2013-01-06 20:15:00
3:35 PM,40.6,29.7,65,30.03,10.0,SSW,5.8,-,N/A,,Overcast,200,2013-01-06 20:35:00
3:55 PM,40.6,29.8,65,30.04,10.0,SW,5.8,-,N/A,,Overcast,220,2013-01-06 20:55:00
4:15 PM,40.3,30.4,68,30.04,10.0,SSW,4.6,-,N/A,,Light Drizzle,210,2013-01-06 21:15:00
4:35 PM,39.6,31.1,72,30.06,10.0,WSW,6.9,-,N/A,,Light Drizzle,240,2013-01-06 21:35:00
4:55 PM,39.6,31.5,73,30.06,10.0,WSW,10.4,16.1,N/A,Rain,Light Rain,240,2013-01-06 21:55:00
5:15 PM,38.1,32.0,79,30.07,10.0,WSW,15.0,-,N/A,Rain,Light Rain,250,2013-01-06 22:15:00
5:35 PM,36.1,32.2,86,30.09,7.0,West,10.4,24.2,N/A,Rain,Light Rain,280,2013-01-06 22:35:00
5:55 PM,35.8,32.4,87,30.10,10.0,West,6.9,-,N/A,,Light Drizzle,280,2013-01-06 22:55:00
6:15 PM,35.8,32.4,87,30.11,10.0,West,6.9,-,N/A,,Overcast,270,2013-01-06 23:15:00
6:35 PM,35.8,32.5,88,30.13,10.0,West,12.7,20.7,N/A,,Overcast,280,2013-01-06 23:35:00
6:55 PM,34.2,29.3,82,30.15,10.0,West,15.0,27.6,N/A,,Overcast,280,2013-01-06 23:55:00
7:15 PM,33.3,29.3,85,30.17,10.0,West,11.5,17.3,N/A,,Overcast,280,2013-01-07 00:15:00
7:35 PM,33.1,28.8,84,30.18,10.0,West,13.8,20.7,N/A,,Overcast,280,2013-01-07 00:35:00
7:55 PM,32.0,27.0,82,30.19,10.0,WNW,16.1,-,N/A,,Overcast,290,2013-01-07 00:55:00
8:35 PM,31.6,24.8,76,30.21,10.0,West,15.0,20.7,N/A,,Overcast,270,2013-01-07 01:35:00
9:15 PM,31.1,24.6,77,30.23,10.0,West,11.5,-,N/A,,Overcast,280,2013-01-07 02:15:00
9:35 PM,30.9,24.1,76,30.24,10.0,WNW,9.2,-,N/A,,Overcast,290,2013-01-07 02:35:00
9:55 PM,30.6,23.4,75,30.25,10.0,West,12.7,-,N/A,,Overcast,280,2013-01-07 02:55:00
10:15 PM,30.2,22.6,73,30.26,10.0,WNW,13.8,-,N/A,,Overcast,290,2013-01-07 03:15:00
10:55 PM,30.0,22.8,75,30.28,10.0,West,8.1,-,N/A,,Overcast,280,2013-01-07 03:55:00
11:15 PM,29.5,23.0,77,30.29,7.0,West,12.7,-,N/A,,Overcast,280,2013-01-07 04:15:00
11:35 PM,29.1,22.8,77,30.31,7.0,WNW,8.1,-,N/A,,Overcast,290,2013-01-07 04:35:00
11:55 PM,29.1,23.2,78,30.32,7.0,NW,9.2,-,N/A,,Overcast,310,2013-01-07 04:55:00